DW5057 Weather Reports


Display with metric or nautical units.
time (UTC)temp
F
wind
direction
speed
MPH
gust
MPH
rain 1hr
in
rain 24hr
in
rain mn
in
humidity
%
barometer
mb
20260510112518 58 49 0.0 2.0 0.00 0.03 0.00 98 1012.9
20260510111516 58 52 0.0 1.0 0.00 0.03 0.00 99 1012.8
20260510110516 57 46 0.0 2.0 0.00 0.03 0.00 99 1012.7
20260510105516 56 51 0.0 2.0 0.00 0.03 0.00 99 1012.6
20260510104517 56 29 0.0 2.0 0.00 0.03 0.00 99 1012.5
20260510103516 55 344 0.0 2.0 0.00 0.03 0.00 99 1012.3
20260510102517 55 352 0.0 2.0 0.00 0.03 0.00 98 1012.1
20260510101516 55 56 0.0 2.0 0.00 0.03 0.00 98 1012.0
20260510100517 55 41 0.0 2.0 0.00 0.03 0.00 98 1012.0
20260510095517 55 47 0.0 2.0 0.00 0.03 0.00 98 1012.0
20260510094518 56 7 0.0 2.0 0.00 0.03 0.00 98 1011.8
20260510093517 56 24 0.0 1.0 0.00 0.03 0.00 98 1011.6
20260510092517 56 40 0.0 2.0 0.00 0.03 0.00 98 1011.5
20260510091517 56 25 0.0 1.0 0.00 0.03 0.00 98 1011.4
20260510090517 56 310 1.0 2.0 0.00 0.03 0.00 98 1011.2
20260510085518 56 45 0.0 1.0 0.00 0.03 0.00 98 1011.2
20260510084538 56 22 0.0 1.0 0.00 0.03 0.00 98 1011.1
20260510083515 56 41 0.0 1.0 0.00 0.03 0.00 98 1011.1
20260510082559 56 47 0.0 1.0 0.00 0.03 0.00 98 1011.1
20260510081519 56 349 0.0 2.0 0.00 0.03 0.00 98 1011.0
20260510080516 56 60 0.0 1.0 0.00 0.03 0.00 98 1010.9
20260510075536 56 18 0.0 1.0 0.00 0.03 0.00 98 1010.9
20260510074536 56 61 0.0 1.0 0.00 0.03 0.00 98 1011.0
20260510073517 56 65 0.0 2.0 0.00 0.03 0.00 98 1011.0
20260510072517 56 14 0.0 2.0 0.00 0.03 0.00 98 1011.0
20260510071516 56 50 0.0 1.0 0.00 0.03 0.00 98 1011.0
20260510070517 56 8 0.0 2.0 0.00 0.03 0.00 98 1011.0
20260510065517 56 64 0.0 1.0 0.00 0.03 0.00 98 1011.0
20260510064517 56 65 0.0 2.0 0.00 0.03 0.00 98 1011.0
20260510063517 57 42 0.0 1.0 0.00 0.03 0.00 98 1011.1
20260510062518 57 58 0.0 2.0 0.00 0.03 0.00 98 1011.1
20260510061517 57 53 0.0 2.0 0.00 0.03 0.00 98 1011.2
20260510060518 57 23 0.0 2.0 0.00 0.03 0.00 98 1011.3
20260510055518 57 315 0.0 2.0 0.00 0.03 0.00 98 1011.3
20260510054518 57 313 0.0 1.0 0.00 0.03 0.00 98 1011.3
20260510053518 57 354 0.0 2.0 0.00 0.03 0.00 98 1011.3
20260510052518 57 343 0.0 2.0 0.00 0.03 0.00 98 1011.3
20260510051516 58 326 1.0 2.0 0.00 0.03 0.00 98 1011.4
20260510050516 58 335 0.0 2.0 0.00 0.03 0.00 98 1011.5
20260510045536 58 343 0.0 2.0 0.00 0.03 0.00 98 1011.5
20260510044516 58 56 0.0 2.0 0.00 0.03 0.00 98 1011.5
20260510043517 58 319 0.0 2.0 0.00 0.03 0.00 97 1011.5
20260510042516 58 4 0.0 2.0 0.00 0.03 0.00 97 1011.5
20260510041536 58 352 0.0 1.0 0.00 0.03 0.00 97 1011.5
20260510040557 58 349 0.0 1.0 0.00 0.03 0.00 97 1011.4
20260510035517 58 61 0.0 2.0 0.00 0.03 0.03 97 1011.3
20260510034517 58 27 0.0 1.0 0.00 0.03 0.03 97 1011.3
20260510033517 58 74 0.0 2.0 0.00 0.03 0.03 97 1011.2
20260510032517 58 62 0.0 1.0 0.00 0.03 0.03 97 1011.2
20260510031518 58 73 0.0 1.0 0.00 0.03 0.03 97 1011.1
20260510030518 59 19 0.0 1.0 0.00 0.03 0.03 97 1011.1
20260510025518 59 318 0.0 1.0 0.00 0.03 0.03 97 1011.1
20260510024518 59 336 0.0 1.0 0.00 0.03 0.03 97 1011.0
20260510023518 59 40 0.0 1.0 0.00 0.03 0.03 96 1011.1
20260510022519 59 353 1.0 2.0 0.00 0.03 0.03 96 1011.1
20260510021516 59 33 0.0 2.0 0.00 0.03 0.03 96 1011.1
20260510020518 59 338 0.0 2.0 0.00 0.03 0.03 96 1011.1
20260510015516 59 354 1.0 2.0 0.00 0.03 0.03 96 1011.1
20260510014516 58 44 0.0 2.0 0.00 0.03 0.03 95 1011.0
20260510013516 59 34 1.0 2.0 0.00 0.03 0.03 95 1010.9
20260510012517 59 30 1.0 2.0 0.00 0.03 0.03 95 1010.9
20260510011516 59 47 0.0 2.0 0.00 0.03 0.03 95 1010.8
20260510010557 59 21 1.0 2.0 0.00 0.03 0.03 95 1010.7
20260510005517 59 28 1.0 2.0 0.00 0.03 0.03 94 1010.6
20260510004537 59 26 0.0 2.0 0.00 0.03 0.03 94 1010.6
20260510003517 59 30 1.0 2.0 0.00 0.03 0.03 94 1010.5
20260510002518 60 22 1.0 2.0 0.00 0.03 0.03 93 1010.5
20260510001538 60 27 1.0 2.0 0.00 0.03 0.03 93 1010.4
20260510000518 60 25 1.0 2.0 0.00 0.03 0.03 92 1010.3
20260509235538 60 25 1.0 2.0 0.00 0.03 0.03 92 1010.3
20260509234518 60 17 1.0 2.0 0.00 0.03 0.03 91 1010.2
20260509233518 60 34 1.0 2.0 0.00 0.03 0.03 91 1010.1
20260509232516 61 19 1.0 2.0 0.00 0.03 0.03 90 1010.1
20260509231516 61 30 1.0 3.0 0.00 0.03 0.03 90 1010.1
20260509230516 61 24 1.0 3.0 0.00 0.03 0.03 90 1010.0
20260509225516 61 32 1.0 2.0 0.00 0.03 0.03 89 1009.8
20260509224516 62 35 1.0 2.0 0.00 0.03 0.03 88 1009.8
20260509223516 62 52 1.0 2.0 0.00 0.03 0.03 87 1010.0
20260509222537 63 37 1.0 2.0 0.00 0.03 0.03 85 1010.0
20260509221537 64 37 1.0 5.0 0.00 0.03 0.03 84 1010.0
20260509220517 63 13 1.0 2.0 0.00 0.03 0.03 84 1010.1
20260509215517 63 6 1.0 3.0 0.00 0.03 0.03 85 1010.1
20260509214517 63 1 1.0 2.0 0.00 0.03 0.03 85 1010.0
20260509213517 63 354 1.0 3.0 0.00 0.03 0.03 85 1009.8
20260509212518 62 16 1.0 3.0 0.00 0.03 0.03 85 1009.8
20260509211538 62 253 1.0 4.0 0.00 0.03 0.03 86 1009.8
20260509210518 63 251 1.0 3.0 0.00 0.03 0.03 84 1009.8
20260509205518 63 297 1.0 6.0 0.00 0.03 0.03 84 1009.9
20260509204518 64 180 1.0 3.0 0.00 0.03 0.03 83 1010.0
20260509203538 64 240 0.0 2.0 0.00 0.03 0.03 84 1010.3
20260509202516 64 219 1.0 3.0 0.00 0.03 0.03 85 1010.3
20260509201518 63 180 1.0 3.0 0.00 0.03 0.03 85 1010.5
20260509200518 63 182 1.0 3.0 0.00 0.03 0.03 85 1010.6
20260509195516 63 199 1.0 3.0 0.00 0.03 0.03 85 1010.9
20260509194516 63 210 1.0 2.0 0.00 0.03 0.03 85 1011.0
20260509193536 63 174 1.0 2.0 0.00 0.03 0.03 86 1011.2
20260509192516 63 163 1.0 2.0 0.00 0.03 0.03 87 1011.3
20260509191517 64 185 1.0 4.0 0.00 0.03 0.03 87 1011.4
20260509190517 63 132 1.0 3.0 0.01 0.03 0.03 89 1011.4
20260509185517 61 128 1.0 3.0 0.01 0.03 0.03 91 1011.5
20260509184517 61 106 1.0 3.0 0.03 0.03 0.03 93 1011.6
20260509183537 60 112 1.0 3.0 0.03 0.03 0.03 93 1011.7
20260509182518 60 89 1.0 3.0 0.03 0.03 0.03 93 1011.7
20260509181518 60 143 2.0 5.0 0.03 0.03 0.03 92 1011.9
20260509180518 60 151 2.0 4.0 0.02 0.02 0.02 93 1012.1
20260509175538 61 161 2.0 4.0 0.02 0.02 0.02 92 1012.0
20260509174518 61 171 2.0 4.0 0.00 0.00 0.00 89 1012.0
20260509173518 62 194 2.0 4.0 0.00 0.00 0.00 86 1011.9
20260509172515 62 218 2.0 7.0 0.00 0.00 0.00 86 1011.9
20260509171536 62 214 2.0 4.0 0.00 0.00 0.00 86 1012.1
20260509170536 63 216 2.0 3.0 0.00 0.00 0.00 84 1012.2
20260509165516 63 219 1.0 4.0 0.00 0.00 0.00 82 1012.4
20260509164516 65 219 1.0 5.0 0.00 0.00 0.00 79 1012.5
20260509163516 66 198 2.0 6.0 0.00 0.00 0.00 74 1012.2
20260509162516 65 198 2.0 4.0 0.00 0.00 0.00 76 1012.1
20260509161557 65 170 2.0 4.0 0.00 0.00 0.00 78 1012.4
20260509160517 65 129 2.0 5.0 0.00 0.00 0.00 77 1012.7
20260509155557 65 130 2.0 5.0 0.00 0.00 0.00 78 1012.9
20260509154537 65 212 1.0 3.0 0.00 0.00 0.00 78 1013.2
20260509153517 64 213 1.0 4.0 0.00 0.00 0.00 79 1013.3
20260509152517 64 200 1.0 5.0 0.00 0.00 0.00 80 1013.3
20260509151518 64 267 1.0 4.0 0.00 0.00 0.00 81 1013.4
20260509150558 64 223 1.0 4.0 0.00 0.00 0.00 80 1013.4
20260509145518 64 316 1.0 5.0 0.00 0.00 0.00 80 1013.5
20260509144518 64 251 1.0 3.0 0.00 0.00 0.00 80 1013.6
20260509143518 64 198 1.0 3.0 0.00 0.00 0.00 81 1013.5
20260509142518 64 214 1.0 4.0 0.00 0.00 0.00 80 1013.5
20260509141518 64 339 1.0 4.0 0.00 0.00 0.00 79 1013.5
20260509140516 63 255 1.0 4.0 0.00 0.00 0.00 80 1013.4
20260509135516 62 54 1.0 3.0 0.00 0.00 0.00 83 1013.5
20260509134516 61 144 1.0 3.0 0.00 0.00 0.00 86 1013.6
20260509133516 60 178 1.0 2.0 0.00 0.00 0.00 88 1013.7
20260509132525 60 162 1.0 2.0 0.00 0.00 0.00 87 1013.7
20260509131525 60 190 1.0 2.0 0.00 0.00 0.00 86 1013.7
20260509130537 61 149 1.0 2.0 0.00 0.00 0.00 84 1013.7
20260509125517 61 160 1.0 3.0 0.00 0.00 0.00 83 1013.8
20260509124518 62 159 2.0 3.0 0.00 0.00 0.00 82 1013.7
20260509123538 62 161 1.0 3.0 0.00 0.00 0.00 80 1013.7
20260509122518 62 165 1.0 3.0 0.00 0.00 0.00 81 1013.6
20260509121518 61 197 1.0 3.0 0.00 0.00 0.00 82 1013.7
20260509120519 61 204 1.0 2.0 0.00 0.00 0.00 82 1013.7
20260509115516 61 197 1.0 3.0 0.00 0.00 0.00 82 1013.8
20260509114538 60 191 1.0 2.0 0.00 0.00 0.00 82 1013.8
20260509113516 60 186 1.0 3.0 0.00 0.00 0.00 82 1013.7